Temperature
14 14 15 15 13 11 13 14 14 15 16 17 17 18 16 16 17 18 17 17 17 18 17 17 17 17 17 17 17 17 17 17 17 17 17 17 17 17 17 17 16 16 16 16 16 16 16 16 16
14 14 15 14 12 13 14 13 14 15 17 17 17 17 16 16 17 17 17 17 17 17 17 17 16 16 16 16 16 17 17 17 17 17 17 17 16 16 16 16 16 16 16 16 16 16 16 16 15
14 14 14 11 12 12 15 15 14 15 17 17 17 17 16 16 17 17 17 17 17 17 17 17 16 16 16 16 16 16 16 16 17 17 17 16 16 16 16 16 16 16 16 16 16 16 16 15 15
14 14 13 11 12 12 13 15 14 15 16 17 16 15 16 16 16 17 17 17 17 17 17 17 16 16 16 16 16 16 16 16 16 16 16 16 16 16 16 16 16 16 16 16 16 15 15 15 15
14 14 11 11 12 12 12 13 15 15 15 16 16 14 15 16 16 17 17 17 17 17 17 16 16 16 16 16 16 16 16 16 16 16 16 16 16 16 16 16 16 16 15 15 15 15 15 15 15
13 11 11 11 12 12 12 14 15 14 14 15 15 14 15 16 16 16 16 16 16 16 16 16 16 16 16 16 15 15 16 16 16 16 16 16 16 16 16 16 16 15 15 15 15 15 15 15 15
12 10 11 11 12 13 13 14 14 14 14 15 15 14 15 16 16 16 16 16 16 16 16 16 16 15 15 15 15 15 15 15 15 15 15 15 15 15 15 15 15 15 15 15 15 15 15 14 14
13 10 11 11 12 13 13 14 14 14 14 15 15 14 14 15 15 15 15 15 15 15 15 15 15 15 15 15 15 15 15 15 15 15 15 15 15 15 15 15 15 15 15 15 15 14 14 14 14
13 10 10 11 12 13 13 13 14 14 14 15 15 15 15 15 15 15 15 15 15 15 15 15 15 15 15 15 15 15 15 14 14 14 14 14 14 14 14 14 14 14 14 14 14 14 14 14 14
11 9 11 11 12 12 12 13 13 13 13 13 14 15 15 15 15 15 15 15 15 15 15 15 15 15 15 15 14 14 14 14 14 14 14 14 14 14 14 14 14 14 14 14 14 14 14 14 14
10 10 11 11 12 12 12 12 13 13 12 13 14 14 14 14 14 14 14 14 14 14 14 14 14 14 14 14 14 14 14 14 14 14 14 14 14 14 14 14 13 13 13 13 13 13 13 13 13
9 10 10 11 12 12 12 12 12 12 13 14 14 14 14 14 14 14 14 14 14 14 14 14 14 14 14 14 14 13 13 13 13 13 13 13 13 13 13 13 13 13 13 13 13 13 13 13 13
9 10 11 11 11 11 11 11 11 12 13 14 13 13 14 14 14 14 13 13 13 13 13 13 13 13 13 13 13 13 13 13 13 13 13 13 13 13 13 13 13 13 13 13 13 13 13 13 13
9 9 10 10 11 11 10 10 10 12 13 13 13 13 13 13 13 13 13 13 13 13 13 13 13 13 13 13 13 13 13 13 13 12 12 12 12 12 12 12 12 12 12 12 12 12 12 12 12
10 9 9 9 10 10 10 10 9 12 12 12 13 13 13 13 13 13 13 13 13 13 13 13 13 13 12 12 12 12 12 12 12 12 12 12 12 12 12 12 12 12 12 12 12 12 12 12 12
9 9 9 10 9 9 10 10 11 12 11 11 12 12 12 13 13 13 13 13 13 13 13 13 12 12 12 12 12 12 12 12 12 12 12 12 12 12 12 12 12 12 12 11 11 11 11 11 11
8 8 8 9 9 9 9 9 10 11 11 10 11 12 12 12 12 12 12 12 12 12 12 12 12 12 12 12 12 12 11 11 11 11 11 11 11 11 11 11 11 11 11 11 11 11 11 11 11
8 7 8 8 9 8 8 8 8 10 10 10 10 11 11 11 12 12 12 12 12 12 12 12 12 12 11 11 11 11 11 11 11 11 11 11 11 11 11 11 11 11 11 10 10 10 10 10 10
8 8 8 8 8 8 7 8 8 9 9 8 9 10 10 11 12 12 12 12 12 11 11 11 11 11 11 11 11 11 10 10 10 10 10 10 10 10 10 10 10 10 10 10 10 10 10 10 9
8 8 8 8 8 8 7 7 8 8 8 9 9 9 10 11 11 11 11 11 11 11 11 11 11 11 11 10 10 10 10 10 10 10 10 10 10 10 10 10 10 10 10 9 9 9 9 9 9
7 7 7 8 8 7 7 8 8 8 8 9 9 10 10 11 11 11 11 11 11 11 11 11 10 10 10 10 10 10 9 9 9 9 9 9 9 9 9 9 9 9 9 9 9 9 9 8 8
7 7 7 7 7 6 7 7 7 7 7 7 8 9 9 10 10 11 11 11 11 11 10 10 10 10 10 9 9 9 9 9 9 9 9 9 9 9 9 9 9 9 9 8 8 8 8 8 8
7 7 6 6 6 5 6 6 7 7 7 8 7 8 9 10 10 10 10 10 10 10 10 10 10 9 9 9 9 9 9 9 8 8 8 8 8 8 8 8 8 8 8 8 8 8 8 7 7
6 6 5 4 5 6 5 5 6 6 7 8 8 8 9 9 10 10 10 10 10 10 10 9 9 9 9 9 8 8 8 8 8 8 8 8 8 8 8 8 7 7 7 7 7 7 7 7 7
6 6 6 6 5 5 5 5 6 7 7 7 7 8 9 9 9 9 9 9 9 9 9 9 9 9 9 8 8 8 8 8 8 8 8 8 7 7 7 7 7 7 7 7 7 6 7 7 7
5 6 6 6 6 5 5 5 6 6 6 7 7 8 8 9 9 9 9 9 9 9 9 8 8 8 8 8 8 8 8 8 8 7 7 7 7 7 7 7 6 6 6 6 6 6 6 6 6
5 5 5 4 4 5 5 4 5 6 6 6 6 7 7 8 8 8 8 8 8 8 8 8 8 8 8 8 7 7 7 7 7 7 7 7 6 6 6 6 6 6 6 6 5 5 6 6 6
6 5 4 5 5 6 6 5 6 7 6 6 5 6 7 8 8 8 8 8 8 8 8 8 8 7 7 7 7 7 7 7 7 6 6 6 6 6 5 5 5 5 5 5 5 5 5 5 5
4 5 5 4 4 5 5 6 6 6 6 5 5 6 7 7 7 7 8 8 8 8 8 7 7 7 7 7 7 6 6 6 6 6 6 6 5 5 5 5 5 5 5 5 5 5 5 4 5
4 4 4 5 4 3 3 6 7 5 5 5 5 6 7 7 7 7 7 7 7 7 7 7 7 7 6 6 6 6 6 6 6 6 6 5 5 5 5 5 5 4 4 4 4 4 4 4 4
Wind_Speed
5 3 3 4 5 4 3 5 3 3 2 1 1 4 6 5 4 4 1 0 1 2 2 4 5 6 7 7 7 8 8 8 8 7 7 7 7 7 7 7 8 8 8 8 8 9 9 9 9
2 2 4 5 5 2 5 5 5 4 2 1 2 3 4 2 1 3 0 1 1 3 3 3 5 6 7 7 7 7 8 7 7 7 7 6 6 6 6 6 6 7 8 8 8 8 8 9 9
1 3 4 4 4 6 5 4 5 2 2 1 2 3 2 2 1 1 1 1 3 3 3 3 6 6 6 6 7 7 6 7 7 7 6 6 6 6 5 5 6 6 7 7 7 7 7 8 8
3 4 5 3 5 5 4 3 1 2 2 2 3 3 1 2 1 1 1 4 5 3 3 4 5 5 5 5 6 6 6 6 6 6 6 6 6 6 5 5 5 6 6 6 6 6 6 7 8
4 4 3 1 5 4 4 4 2 1 1 2 3 3 1 4 2 3 4 5 5 3 4 4 5 5 5 5 5 5 5 5 5 5 5 5 5 5 5 5 5 5 5 5 5 5 6 7 8
4 4 3 4 5 4 3 3 1 1 1 1 2 3 1 2 3 3 4 4 4 4 4 4 4 4 5 5 5 5 5 4 4 4 4 4 4 5 5 5 5 5 4 5 5 5 5 6 7
4 4 4 4 3 4 3 1 3 3 2 2 3 4 1 2 1 3 4 4 4 4 4 4 3 3 4 4 4 4 4 4 3 3 3 3 3 4 4 4 4 4 4 4 4 5 5 5 6
4 4 3 4 4 4 2 1 1 2 2 1 3 6 4 4 2 4 4 4 4 3 3 2 3 3 3 3 3 3 3 3 3 3 3 3 3 3 3 3 3 3 3 4 4 4 5 5 5
4 2 5 6 6 4 0 1 1 1 1 1 1 3 3 3 4 5 4 3 2 2 2 1 2 3 3 2 2 2 2 1 2 2 2 3 2 2 2 2 2 2 3 3 3 4 4 4 4
4 5 7 4 3 2 1 0 1 2 1 1 1 1 2 3 4 4 3 2 1 1 1 0 0 1 2 2 3 2 1 1 1 1 2 3 3 2 2 2 2 2 2 3 3 3 3 3 3
5 6 4 3 2 1 1 1 1 2 4 6 5 4 2 2 2 3 3 3 3 2 2 1 1 1 1 1 2 2 2 2 2 1 2 3 3 2 2 2 1 1 1 1 1 1 2 2 3
4 4 4 3 1 1 2 2 2 6 8 5 5 4 3 4 4 5 5 4 3 2 3 2 2 1 1 2 2 2 2 2 1 1 2 3 2 1 1 1 1 1 1 1 1 2 2 2 3
5 4 3 4 4 4 3 5 5 8 8 4 3 3 5 6 5 4 4 4 3 3 3 3 2 3 2 1 1 1 1 1 0 1 1 3 2 2 1 1 1 1 1 1 1 1 2 2 2
4 3 4 4 4 3 5 6 5 10 5 5 6 7 7 7 6 4 4 4 4 4 4 3 3 3 3 2 2 1 1 1 1 0 0 2 2 2 2 2 2 1 2 2 2 2 2 3 2
1 2 5 5 5 4 2 8 10 9 5 6 7 7 7 7 6 7 7 6 5 5 4 3 3 3 3 3 3 1 1 1 1 1 1 2 2 3 3 2 2 2 2 2 2 2 2 2 2
1 1 5 5 4 4 5 11 7 4 6 8 7 7 6 7 7 7 6 5 5 4 3 3 2 2 3 3 2 1 1 1 1 1 1 2 2 2 2 3 3 2 1 2 2 2 2 2 2
1 4 6 5 4 4 6 10 6 2 4 7 7 7 7 6 6 6 6 5 5 5 4 3 2 2 2 2 2 2 1 1 1 1 1 2 2 2 2 3 2 2 2 3 3 3 3 3 3
7 6 6 7 3 4 7 12 11 6 6 9 8 7 7 7 8 7 5 5 4 4 4 3 2 2 1 1 0 0 1 1 1 1 2 2 2 2 2 2 3 2 3 3 3 3 3 3 3
5 5 6 6 3 4 9 14 14 9 8 9 9 8 8 9 7 5 4 4 3 3 3 3 3 2 1 1 1 1 1 2 2 2 2 2 2 3 3 3 3 4 4 4 4 3 3 3 2
6 7 7 6 3 4 8 14 13 11 10 10 10 10 10 7 5 4 4 4 4 4 4 3 4 3 3 2 2 2 2 2 2 2 2 2 2 3 3 4 4 4 4 4 4 4 3 2 2
9 9 7 6 5 3 6 11 8 6 6 7 8 8 8 9 8 6 5 5 4 4 5 4 3 3 3 2 1 0 0 1 1 2 2 3 3 3 3 4 4 4 5 5 5 5 5 4 4
9 7 7 5 3 5 1 7 8 5 6 6 7 6 7 7 7 6 6 5 5 5 4 3 3 3 2 2 2 3 2 3 3 3 3 3 3 3 3 4 4 5 5 5 5 5 5 5 4
6 3 5 4 4 5 4 5 9 4 6 7 7 7 7 7 7 7 6 6 5 4 3 2 2 2 2 2 3 3 3 3 3 3 3 3 3 3 4 4 4 5 5 5 5 5 6 5 6
6 3 2 1 1 7 8 7 9 5 7 6 5 5 6 6 5 5 4 3 2 2 2 1 1 1 1 1 2 3 4 4 4 4 4 3 3 3 4 4 4 4 5 5 6 6 7 7 6
5 4 0 2 3 7 5 6 10 7 7 6 6 6 5 5 5 4 4 3 2 2 2 1 1 1 1 1 2 3 4 4 5 5 4 4 3 3 4 4 4 4 5 5 5 6 7 7 8
8 8 7 7 6 4 3 8 9 6 5 5 5 4 4 4 5 5 5 5 4 3 3 2 2 2 2 1 2 2 3 3 3 4 4 4 4 5 5 5 5 6 6 6 6 6 7 7 8
7 7 5 4 1 3 6 7 9 4 3 3 2 2 3 4 4 4 4 3 3 3 3 3 3 2 2 2 2 3 3 3 4 4 4 4 4 4 5 5 5 6 6 6 6 6 7 7 8
5 7 5 5 5 6 6 6 5 5 4 3 2 3 3 3 3 3 3 3 3 3 3 2 2 2 3 3 3 3 4 4 4 4 5 5 5 5 5 6 6 6 7 7 7 7 7 7 8
6 5 5 4 4 5 5 7 5 6 5 5 4 4 4 3 3 3 2 2 2 1 1 1 1 2 2 3 3 3 4 4 3 4 5 5 5 5 6 6 6 7 7 7 7 8 7 8 9
5 6 7 6 6 5 4 7 4 4 4 3 3 3 3 3 3 2 2 1 2 2 2 2 2 2 3 3 3 3 4 4 4 5 5 5 5 6 6 6 6 7 8 8 8 9 9 9 10
Wind_Direction
360 12 65 58 59 58 233 242 223 245 229 238 148 130 138 141 152 161 210 117 123 141 150 155 139 132 129 126 130 131 131 127 125 125 125 124 131 139 142 146 149 147 144 140 140 142 143 142 140
353 43 57 65 101 166 252 236 217 221 215 89 68 92 99 100 73 111 59 290 112 127 121 131 133 133 132 128 125 131 133 133 133 134 135 135 133 136 145 146 143 144 144 144 145 149 150 149 148
13 55 86 89 147 188 219 218 212 268 287 135 71 61 113 125 96 156 267 161 103 101 101 115 124 124 127 127 127 127 132 139 141 140 143 144 144 141 142 144 144 143 144 148 152 157 157 156 154
81 55 62 100 214 225 227 244 248 326 10 46 102 68 23 5 311 218 93 116 104 89 78 98 118 119 118 123 126 126 126 136 144 145 147 149 149 146 145 140 139 143 148 153 157 162 162 165 163
61 84 93 227 238 246 251 272 262 288 345 19 92 111 357 344 19 74 97 110 110 89 63 85 109 112 111 110 115 124 127 129 135 146 149 151 153 153 149 146 143 142 150 157 160 165 168 170 171
66 80 134 221 241 260 264 262 216 196 211 28 109 126 209 339 51 68 92 98 104 102 71 69 102 104 106 108 109 113 120 127 132 138 143 149 146 141 140 145 151 153 155 163 172 176 169 171 176
116 124 183 207 236 255 252 217 164 172 188 210 153 135 241 301 53 82 83 81 77 79 76 53 60 86 99 102 105 112 115 119 129 137 143 146 144 137 139 142 146 154 163 170 180 179 177 172 177
128 127 187 211 213 239 281 10 137 160 203 224 146 156 204 225 127 84 74 67 66 61 63 54 50 59 68 77 95 108 109 112 119 122 138 146 145 144 143 146 154 159 166 174 177 179 177 176 179
102 113 212 210 201 224 321 42 349 353 114 336 232 188 205 136 107 89 77 54 57 48 28 47 55 50 58 74 86 92 96 109 126 125 127 133 126 131 140 146 161 178 177 179 184 190 183 176 180
126 194 221 212 195 199 280 208 280 24 360 300 338 355 66 102 123 128 141 163 186 220 259 286 108 63 63 66 60 66 78 67 77 82 100 112 113 119 124 154 174 194 197 193 205 209 185 165 168
172 205 221 237 224 207 239 264 255 170 241 216 208 211 167 144 162 175 191 196 209 219 220 228 197 129 105 90 71 62 63 61 63 66 94 106 104 100 95 106 169 198 181 167 205 178 143 149 161
194 236 222 242 222 220 225 239 245 212 228 227 206 192 187 195 205 206 206 213 215 215 232 223 198 176 152 113 100 84 71 64 59 66 109 107 96 92 85 84 101 131 146 149 141 141 151 165 185
217 248 245 245 261 250 241 238 245 245 243 252 237 226 220 220 225 226 219 220 219 221 232 234 204 194 188 150 139 112 123 109 90 68 129 139 149 178 166 148 128 161 156 166 169 170 176 190 206
224 241 266 265 251 248 240 257 235 252 229 223 221 227 230 226 224 226 229 227 223 223 229 226 215 206 188 185 187 193 166 142 111 87 214 172 160 172 187 198 200 203 199 194 187 192 200 209 216
233 292 295 254 224 233 223 272 233 242 205 222 226 230 235 234 227 221 221 221 223 225 225 220 222 203 193 202 206 197 180 156 197 239 249 209 183 177 182 197 205 217 208 198 192 193 193 211 230
108 245 265 264 202 200 173 260 259 223 198 231 239 240 239 242 235 230 223 220 221 213 211 220 216 193 201 207 210 205 191 184 220 238 237 226 208 188 178 199 213 219 192 188 199 200 211 224 233
208 227 240 275 220 188 199 252 267 233 209 239 247 246 238 240 246 240 226 215 213 209 203 203 201 193 205 213 211 211 203 208 227 236 244 235 219 202 187 205 219 207 199 204 212 213 208 224 241
212 216 236 246 252 202 232 256 270 265 239 245 250 249 241 236 240 238 225 217 210 204 197 197 202 204 194 203 197 234 243 244 237 232 241 235 227 213 197 211 215 201 201 210 214 219 221 220 233
194 210 243 254 259 239 250 264 269 265 249 248 249 244 240 241 243 234 221 202 188 197 197 202 201 208 179 193 218 211 245 258 259 254 250 235 223 216 205 223 214 205 206 213 212 211 228 230 200
217 233 251 278 285 257 279 276 270 254 243 238 240 241 235 234 234 224 212 199 199 201 203 208 206 206 203 208 221 216 219 244 253 266 276 256 235 226 225 218 219 214 214 216 211 202 213 231 196
224 225 234 251 319 312 305 293 269 256 239 244 240 237 228 217 216 212 205 207 207 210 213 215 219 214 215 204 196 203 7 330 301 283 270 268 248 234 229 227 223 220 215 218 215 208 208 221 224
235 222 213 230 267 285 307 289 279 269 279 257 248 237 228 220 210 204 201 206 212 216 218 210 213 216 218 191 183 195 218 243 249 249 259 268 259 246 240 230 226 222 221 221 222 213 209 209 225
205 167 186 210 212 272 239 246 278 273 264 258 248 235 229 219 205 203 205 208 211 205 200 196 203 224 231 205 193 204 228 241 249 254 260 266 262 252 246 238 231 227 226 229 229 222 214 214 220
156 108 71 65 163 255 220 208 272 234 225 244 245 237 232 221 211 209 207 192 194 186 177 177 187 252 254 220 214 211 227 241 251 256 256 264 264 254 249 245 239 235 233 233 234 230 224 224 227
158 142 175 281 250 245 189 211 252 245 235 232 242 239 236 220 203 197 191 190 194 190 192 194 187 254 264 246 248 236 237 239 241 247 248 255 261 257 249 245 241 241 239 239 236 235 235 229 228
190 176 184 206 226 264 208 233 255 261 264 258 249 236 228 216 202 201 200 196 197 203 205 200 204 252 267 265 277 272 261 252 250 249 248 248 251 254 249 242 242 244 242 244 238 239 240 236 232
168 202 179 147 174 266 251 270 294 264 278 278 260 227 228 221 205 203 204 201 206 211 214 204 204 242 270 279 289 292 282 267 260 255 251 251 253 257 251 245 245 245 242 240 240 243 244 241 237
174 155 145 173 196 242 266 257 246 258 256 265 247 233 241 229 212 213 205 203 212 213 216 206 210 237 271 282 282 292 284 272 264 258 255 256 258 256 254 251 247 245 241 238 238 244 245 242 244
165 176 176 168 182 191 251 263 226 222 228 228 236 238 232 224 221 224 223 212 219 226 225 229 256 272 283 284 287 289 286 284 281 272 264 258 260 258 253 252 252 251 248 242 241 244 245 245 249
187 186 170 187 215 200 217 265 279 219 222 213 245 259 245 225 217 216 221 228 228 238 247 250 261 272 279 284 297 294 293 294 291 284 279 267 262 260 253 252 253 254 251 245 243 247 246 245 249
Height
1484 1485 1487 1490 1494 1503 1503 1495 1490 1488 1485 1483 1483 1483 1485 1488 1491 1496 1493 1491 1492 1493 1494 1495 1497 1498 1500 1501 1502 1503 1504 1506 1507 1508 1509 1510 1511 1512 1513 1513 1514 1515 1516 1517 1517 1518 1519 1520 1520
1484 1486 1489 1490 1499 1507 1501 1491 1489 1485 1483 1483 1483 1484 1484 1486 1488 1490 1490 1491 1492 1493 1494 1495 1497 1498 1499 1501 1502 1503 1504 1505 1506 1507 1508 1509 1510 1511 1512 1513 1514 1515 1516 1517 1517 1518 1519 1520 1520
1484 1486 1489 1492 1499 1501 1493 1486 1485 1483 1482 1482 1483 1484 1485 1487 1488 1489 1490 1491 1492 1493 1494 1495 1496 1498 1499 1500 1502 1503 1504 1505 1506 1506 1507 1508 1509 1510 1512 1513 1514 1514 1515 1516 1517 1518 1519 1519 1520
1485 1488 1489 1495 1496 1493 1488 1483 1482 1482 1482 1482 1483 1485 1486 1488 1488 1489 1490 1491 1492 1493 1494 1495 1496 1497 1499 1500 1501 1502 1503 1504 1505 1506 1506 1507 1509 1510 1511 1512 1513 1513 1514 1515 1516 1517 1518 1519 1520
1485 1486 1492 1497 1493 1488 1484 1482 1482 1482 1482 1482 1483 1485 1486 1488 1488 1489 1490 1491 1492 1493 1494 1494 1495 1497 1498 1499 1500 1501 1502 1503 1503 1504 1505 1506 1507 1508 1510 1511 1511 1512 1513 1514 1515 1516 1517 1518 1519
1485 1487 1496 1497 1491 1486 1483 1481 1481 1482 1482 1483 1483 1485 1486 1487 1488 1489 1490 1491 1492 1492 1493 1494 1495 1496 1497 1498 1499 1500 1500 1501 1502 1503 1504 1505 1506 1507 1508 1509 1510 1511 1512 1513 1514 1514 1515 1516 1517
1485 1490 1493 1492 1490 1486 1481 1480 1481 1481 1481 1482 1483 1484 1485 1486 1487 1488 1489 1490 1491 1492 1492 1493 1494 1495 1495 1496 1497 1498 1499 1500 1500 1501 1502 1503 1504 1505 1506 1507 1508 1509 1510 1511 1512 1513 1514 1515 1516
1483 1488 1490 1490 1488 1484 1480 1479 1479 1480 1480 1481 1482 1483 1484 1485 1486 1487 1488 1489 1490 1491 1491 1492 1493 1493 1494 1495 1495 1496 1497 1498 1499 1500 1501 1502 1503 1504 1505 1505 1506 1507 1508 1509 1510 1511 1512 1513 1514
1482 1490 1490 1486 1485 1481 1479 1479 1479 1479 1479 1480 1480 1481 1482 1483 1484 1486 1486 1487 1488 1489 1490 1490 1491 1492 1492 1493 1494 1494 1495 1496 1497 1498 1499 1500 1501 1502 1502 1503 1504 1505 1506 1507 1508 1509 1509 1510 1511
1481 1488 1483 1480 1479 1479 1478 1478 1479 1479 1479 1479 1479 1480 1481 1482 1483 1484 1484 1485 1486 1487 1488 1488 1489 1490 1490 1491 1491 1492 1493 1494 1495 1496 1497 1497 1498 1499 1500 1501 1502 1503 1504 1505 1505 1506 1507 1508 1509
1479 1481 1478 1477 1477 1477 1478 1478 1478 1478 1478 1477 1477 1478 1479 1480 1481 1482 1482 1483 1484 1485 1485 1486 1487 1487 1488 1488 1489 1489 1490 1491 1492 1493 1494 1495 1496 1497 1497 1498 1499 1500 1501 1502 1503 1503 1504 1505 1506
1478 1477 1476 1476 1476 1476 1477 1477 1477 1476 1475 1475 1476 1476 1477 1478 1479 1479 1480 1481 1482 1482 1483 1484 1484 1485 1485 1486 1486 1487 1487 1488 1489 1490 1491 1492 1492 1493 1494 1495 1496 1497 1498 1499 1500 1500 1501 1502 1503
1476 1475 1474 1475 1475 1475 1475 1475 1474 1471 1472 1473 1473 1474 1475 1475 1476 1477 1478 1479 1479 1480 1480 1481 1481 1482 1482 1483 1483 1484 1485 1485 1486 1487 1487 1488 1489 1490 1491 1492 1493 1494 1495 1496 1496 1497 1498 1499 1500
1473 1473 1473 1473 1473 1473 1473 1471 1472 1465 1468 1469 1470 1470 1471 1472 1473 1474 1474 1475 1476 1477 1478 1478 1478 1479 1479 1480 1480 1481 1482 1482 1483 1483 1484 1485 1485 1487 1488 1488 1489 1490 1491 1492 1493 1494 1495 1495 1496
1473 1474 1472 1470 1470 1470 1472 1469 1465 1461 1465 1465 1466 1466 1467 1468 1469 1470 1471 1472 1473 1474 1474 1475 1475 1476 1476 1477 1478 1478 1479 1479 1480 1480 1481 1481 1482 1483 1484 1485 1486 1487 1488 1489 1490 1490 1491 1492 1492
1472 1474 1474 1468 1468 1468 1473 1467 1459 1459 1461 1461 1461 1462 1463 1464 1465 1466 1467 1468 1469 1470 1471 1471 1472 1473 1473 1474 1474 1475 1475 1476 1476 1477 1477 1478 1479 1479 1480 1481 1482 1483 1484 1485 1486 1486 1487 1487 1488
1475 1476 1473 1469 1466 1467 1469 1465 1458 1457 1458 1458 1458 1459 1459 1460 1461 1462 1463 1464 1465 1466 1467 1468 1469 1469 1470 1470 1471 1471 1471 1472 1472 1473 1473 1474 1475 1476 1476 1477 1478 1479 1480 1481 1481 1482 1482 1483 1483
1474 1475 1472 1470 1466 1466 1467 1462 1456 1455 1455 1455 1454 1455 1455 1455 1456 1458 1459 1461 1462 1463 1464 1464 1465 1466 1466 1467 1467 1467 1467 1468 1468 1468 1469 1470 1471 1472 1472 1473 1474 1475 1475 1476 1477 1477 1478 1479 1479
1468 1470 1469 1467 1465 1466 1464 1459 1453 1451 1451 1450 1449 1450 1450 1451 1453 1454 1456 1457 1458 1459 1460 1460 1461 1461 1462 1462 1462 1462 1462 1463 1463 1464 1465 1466 1466 1467 1468 1468 1469 1470 1471 1471 1472 1473 1474 1474 1474
1467 1468 1469 1467 1465 1464 1462 1456 1448 1445 1444 1444 1443 1444 1444 1446 1448 1450 1451 1453 1454 1455 1456 1457 1457 1458 1458 1458 1459 1459 1459 1459 1459 1460 1461 1461 1462 1463 1463 1464 1464 1465 1466 1466 1467 1468 1468 1470 1470
1465 1467 1467 1467 1465 1464 1463 1452 1444 1439 1439 1438 1438 1438 1439 1441 1443 1445 1447 1449 1450 1451 1452 1453 1454 1454 1454 1455 1455 1455 1455 1455 1455 1455 1456 1457 1457 1458 1458 1459 1459 1460 1461 1461 1462 1463 1463 1464 1466
1463 1461 1464 1465 1469 1470 1467 1462 1445 1439 1438 1435 1434 1434 1434 1436 1439 1441 1443 1445 1446 1448 1449 1450 1450 1451 1451 1451 1451 1451 1451 1450 1451 1451 1451 1452 1453 1453 1453 1454 1454 1455 1455 1456 1457 1458 1458 1459 1460
1459 1459 1463 1465 1468 1471 1468 1467 1446 1439 1437 1433 1430 1430 1430 1432 1435 1437 1439 1441 1443 1445 1446 1447 1447 1447 1448 1448 1447 1447 1447 1447 1447 1447 1447 1447 1448 1448 1448 1448 1449 1449 1450 1450 1451 1452 1453 1454 1455
1457 1462 1466 1469 1471 1469 1463 1466 1447 1440 1432 1428 1427 1427 1427 1429 1431 1434 1436 1438 1440 1441 1442 1443 1444 1444 1444 1444 1444 1444 1443 1443 1443 1443 1443 1443 1443 1443 1443 1443 1443 1444 1444 1445 1446 1446 1447 1448 1449
1455 1462 1468 1468 1472 1464 1459 1459 1442 1430 1426 1425 1425 1424 1425 1426 1428 1430 1432 1434 1436 1438 1439 1440 1440 1440 1441 1441 1440 1440 1440 1439 1439 1438 1438 1438 1437 1437 1437 1438 1438 1438 1439 1439 1440 1441 1441 1442 1442
1452 1454 1461 1465 1464 1460 1458 1454 1436 1426 1423 1422 1422 1422 1423 1424 1426 1428 1430 1431 1433 1435 1436 1437 1437 1437 1437 1437 1437 1437 1436 1435 1435 1434 1434 1433 1432 1432 1432 1432 1433 1433 1433 1434 1434 1434 1435 1435 1436
1449 1452 1452 1462 1465 1462 1454 1447 1434 1423 1422 1421 1421 1421 1421 1422 1424 1426 1428 1429 1431 1433 1433 1434 1434 1434 1434 1434 1433 1433 1432 1431 1431 1430 1430 1429 1428 1427 1427 1427 1427 1427 1427 1428 1428 1428 1428 1429 1429
1442 1446 1454 1457 1456 1453 1446 1444 1434 1424 1422 1421 1421 1420 1421 1422 1423 1425 1426 1428 1429 1430 1431 1431 1431 1431 1431 1431 1430 1430 1429 1428 1427 1426 1425 1424 1423 1423 1422 1422 1421 1421 1421 1422 1422 1421 1422 1422 1423
1444 1446 1446 1451 1453 1453 1448 1436 1423 1422 1420 1421 1420 1419 1420 1420 1422 1423 1424 1426 1427 1428 1428 1428 1429 1429 1428 1428 1427 1427 1426 1424 1423 1422 1421 1420 1419 1418 1417 1417 1416 1416 1415 1416 1415 1415 1415 1415 1415
1437 1439 1443 1447 1450 1455 1452 1436 1417 1419 1418 1419 1419 1419 1419 1419 1421 1422 1423 1424 1425 1425 1425 1426 1426 1426 1425 1425 1424 1423 1422 1421 1419 1418 1417 1416 1415 1414 1413 1412 1411 1410 1410 1410 1409 1408 1408 1408 1408